{"data":{"norad_id":58036,"intl_designator":"2023-156J","name":"STARLINK-30437","alt_names":[],"object_type":"PAYLOAD","status":"ACTIVE","operator":null,"country":"US","launch_date":"2023-10-09","launch_site_code":"AFWTR","launch_vehicle":null,"mission":null,"orbit_class":"UNKNOWN","rcs_meters":null,"size_class":null,"mass_kg":null,"dimensions":null,"purposes":["comms"],"wikipedia_slug":null,"has_3d_model":false,"image_url":null,"decayed_at":null,"tle_current":{"epoch":"2026-09-20T23:17:36.978432Z","epoch_age_seconds":97027,"freshness":"FRESH","line1":"1 58036U 23156J   26263.97056688  .00000584  00000+0  30576-4 0  9998","line2":"2 58036  53.1591 250.6497 0001208  66.9578 293.1551 15.31704764166178","mean_motion":15.31704764,"eccentricity":0.0001208,"inclination_deg":53.1591,"raan_deg":250.6497,"arg_perigee_deg":66.9578,"mean_anomaly_deg":293.1551,"bstar":3.0576e-5,"rev_number":16617,"period_min":94.012895555635,"perigee_km":469.89845140084,"apogee_km":471.55313665187,"semimajor_km":6848.8627940264,"source":"CELESTRAK","updated_at":"2026-09-21T09:00:33.759547Z"}}}